This is the latest recevied weather packets stored in our database for station/object N4BBA. If no packets are shown the sender has not sent any weather packets the latest 10 day(s).
| Time | Temp. | Humidity | Pressure | Rain* | Wind** | Luminosity | Snow |
|---|---|---|---|---|---|---|---|
| 1778095464 | 26.11° C | 59% | 1012.7 hPa | 0 mm | - | 177 W/m² | - |
| 1778095161 | 26.67° C | 58% | 1012.8 hPa | 0 mm | - | 185 W/m² | - |
| 1778094857 | 26.67° C | 58% | 1012.7 hPa | 0 mm | - | 244 W/m² | - |
| 1778094554 | 26.67° C | 58% | 1012.9 hPa | 0 mm | - | 372 W/m² | - |
| 1778094250 | 26.67° C | 58% | 1012.9 hPa | 0 mm | - | 336 W/m² | - |
| 1778093947 | 26.67° C | 58% | 1013 hPa | 0 mm | - | 400 W/m² | - |
| 1778093644 | 26.67° C | 57% | 1013 hPa | 0 mm | - | 354 W/m² | - |
| 1778093342 | 27.22° C | 56% | 1013 hPa | 0 mm | - | 379 W/m² | - |
| 1778093038 | 26.67° C | 56% | 1013.1 hPa | 0 mm | - | 580 W/m² | - |
| 1778092735 | 26.67° C | 55% | 1012.9 hPa | 0 mm | - | 409 W/m² | - |
| 1778092430 | 27.22° C | 54% | 1012.9 hPa | 0 mm | - | 608 W/m² | - |
| 1778092128 | 27.22° C | 55% | 1013.1 hPa | 0 mm | - | 678 W/m² | - |
| 1778091825 | 27.22° C | 55% | 1013.2 hPa | 0 mm | - | 574 W/m² | - |
| 1778091523 | 27.22° C | 55% | 1013.2 hPa | 0 mm | - | 484 W/m² | - |
| 1778091221 | 26.67° C | 55% | 1013.1 hPa | 0 mm | - | 541 W/m² | - |
| 1778090917 | 26.67° C | 57% | 1013.2 hPa | 0 mm | - | 582 W/m² | - |
| 1778090613 | 26.11° C | 57% | 1013.5 hPa | 0 mm | - | 402 W/m² | - |
| 1778090310 | 26.67° C | 58% | 1013.6 hPa | 0 mm | - | 659 W/m² | - |
| 1778090007 | 26.67° C | 57% | 1013.6 hPa | 0 mm | - | 361 W/m² | - |
| 1778089704 | 26.67° C | 57% | 1013.5 hPa | 0 mm | - | 665 W/m² | - |
| 1778089401 | 26.67° C | 58% | 1013.5 hPa | 0 mm | - | 661 W/m² | - |
| 1778089099 | 26.67° C | 58% | 1013.8 hPa | 0 mm | - | 605 W/m² | - |
| 1778088796 | 26.67° C | 58% | 1013.7 hPa | 0 mm | - | 703 W/m² | - |
| 1778088492 | 26.67° C | 58% | 1013.8 hPa | 0 mm | - | 714 W/m² | - |
| 1778088189 | 26.67° C | 58% | 1013.9 hPa | 0 mm | - | 775 W/m² | - |
* Rain latest hour (hover to see other rain measurements)
** Current wind speed in m/s (hover to see current wind gust speed)